Location: Erlach
(47.0430°N, 7.0996°E)
Time: 17:19:07
(UTC+00:00)

In-Cosmos 22 Rocket - Pass Details

Date: 07 June 2020
Orbit: 790 x 888 km, 81.2° (Epoch: 08 July)

Event Time Altitude Azimuth Distance (km) Brightness Sun altitude
Exits shadow 01:30:58 16° 174° (S) 2,055 5.7 -15.1°
Maximum altitude 01:35:23 63° 97° (E) 929 4.5 -14.7°
Drops below altitude 10° 01:40:47 10° 17° (NNE) 2,421 7.9 -14.2°
Sets 01:43:10 0° 15° (NNE) 3,344 8.9 -14.0°
